Weather History for Beaufort, NC

Change the Weather History Date:

Sunday, August 31, 2014

  Actual Average Record
Temperature  
Mean Temperature 82 °F -  
Max Temperature 86 °F 85 °F 93 °F (1948)
Min Temperature 77 °F 69 °F 58 °F (1976)
Cooling Degree Days 16    
Growing Degree Days 32 (Base 50)    
Moisture  
Dew Point 74 °F    
Average Humidity 76    
Maximum Humidity 87    
Minimum Humidity 69    
Precipitation  
Precipitation 0.00 in - - ()
Sea Level Pressure  
Sea Level Pressure 30.16 in    
Wind  
Wind Speed 7 mph (South)    
Max Wind Speed 12 mph    
Max Gust Speed -    
Visibility 10 miles    
Events      
Averages and records for this station are not official NWS values.
T = Trace of Precipitation, MM = Missing Value Source: NWS Daily Summary

Daily Weather History Graph

Daily Weather History Graph

Search for Another Location

Airport:

Trip Planner

Search our weather history database for the weather conditions in past years. The results will help you decide how hot, cold, wet, or windy it might be!

Date:

Astronomy

Aug. 31, 2014 Rise Set
Actual Time 6:38 AM EDT 7:34 PM EDT
Civil Twilight 6:13 AM EDT 8:00 PM EDT
Nautical Twilight 5:42 AM EDT 8:30 PM EDT
Astronomical Twilight 5:10 AM EDT 9:02 PM EDT
Moon 12:08 PM EDT (8/31) 11:03 PM EDT (8/31)
Length of Visible Light 13h 47m
Length of Day
12h 55m
Waxing Crescent, 32% of the Moon is Illuminated
Aug 31
Waxing Crescent
Sep 2
First Quarter
Sep 8
Full
Sep 15
Last Quarter
Sep 24
New

Hourly Weather History & Observations

Time (EDT) Temp. Heat Index Dew Point Humidity Pressure Visibility Wind Dir Wind Speed Gust Speed Precip Events Conditions
1:58 AM 79.0 °F - 71.1 °F 77% 30.19 in 10.0 mi South 5.8 mph - N/A   Clear
3:58 AM 78.1 °F - 71.1 °F 79% 30.17 in 10.0 mi South 4.6 mph - N/A   Clear
4:58 AM 77.0 °F - 72.0 °F 84% 30.16 in 10.0 mi SSE 3.5 mph - N/A   Clear
5:58 AM 77.0 °F - 72.0 °F 84% 30.17 in 10.0 mi SSE 3.5 mph - N/A   Clear
6:58 AM 78.1 °F - 73.9 °F 87% 30.19 in 10.0 mi SSE 3.5 mph - N/A   Clear
7:58 AM 81.0 °F 86.7 °F 75.0 °F 82% 30.20 in 10.0 mi South 3.5 mph - N/A   Partly Cloudy
8:58 AM 82.9 °F 90.2 °F 75.0 °F 77% 30.19 in 10.0 mi South 5.8 mph - N/A   Partly Cloudy
9:15 AM 82.9 °F 89.4 °F 73.9 °F 74% 30.20 in 10.0 mi SW 6.9 mph - N/A   Mostly Cloudy
9:42 AM 84.0 °F 91.9 °F 75.0 °F 74% 30.19 in 10.0 mi SSW 6.9 mph - N/A   Mostly Cloudy
9:58 AM 84.9 °F 93.3 °F 75.0 °F 72% 30.19 in 10.0 mi SSW 9.2 mph - N/A   Scattered Clouds
10:58 AM 84.9 °F 92.1 °F 73.9 °F 69% 30.18 in 10.0 mi SW 8.1 mph - N/A   Scattered Clouds
11:58 AM 86.0 °F 95.1 °F 75.0 °F 70% 30.18 in 10.0 mi South 8.1 mph - N/A   Clear
1:58 PM 86.0 °F 96.0 °F 75.9 °F 72% 30.15 in 10.0 mi SSW 9.2 mph - N/A   Clear
2:58 PM 86.0 °F 96.0 °F 75.9 °F 72% 30.13 in 10.0 mi South 9.2 mph - N/A   Clear
3:58 PM 84.9 °F 93.3 °F 75.0 °F 72% 30.12 in 10.0 mi South 10.4 mph - N/A   Clear
4:58 PM 84.9 °F 94.1 °F 75.9 °F 74% 30.11 in 10.0 mi South 10.4 mph - N/A   Clear
5:58 PM 84.0 °F 91.2 °F 73.9 °F 72% 30.11 in 10.0 mi SSW 10.4 mph - N/A   Clear
6:58 PM 82.9 °F 90.2 °F 75.0 °F 77% 30.10 in 10.0 mi South 10.4 mph - N/A   Clear
7:58 PM 82.0 °F 88.6 °F 75.0 °F 79% 30.10 in 10.0 mi SSW 11.5 mph - N/A   Clear
8:58 PM 82.0 °F 88.6 °F 75.0 °F 79% 30.12 in 10.0 mi SSW 8.1 mph - N/A   Clear
9:58 PM 82.0 °F 88.6 °F 75.0 °F 79% 30.13 in 10.0 mi SSW 10.4 mph - N/A   Clear
10:58 PM 82.0 °F 87.9 °F 73.9 °F 76% 30.14 in 10.0 mi SSW 10.4 mph - N/A   Clear